Tracking 27122 objects as of 25-Mar-2023
HD Live streaming from Space Station
objects crossing your sky now

STARLINK-3967

Track STARLINK-3967 now!
10-day predictions
STARLINK-3967 is classified as:


NORAD ID: 52636
Int'l Code: 2022-052AQ
Perigee: 546.1 km
Apogee: 547.7 km
Inclination: 53.2 °
Period: 95.4 minutes
Semi major axis: 6917 km
RCS: Unknown
Launch date: May 14, 2022
Source: United States (US)
Launch site: AIR FORCE EASTERN TEST RANGE (AFETR)
Your satellite tracking list
Your tracking list is empty




NASA's NSSDC Master Catalog

Two Line Element Set (TLE):
1 52636U 22052AQ  23084.19652047 -.00000653  00000-0 -22982-4 0  9997
2 52636  53.2165  79.6413 0001157  87.1950 272.9175 15.08834032 48256
Source of the keplerian elements: AFSPC